Location: Barrio de Canyet
(41.4665°N, 2.2381°E)
Time: 19:38:48
(UTC+00:00)

CZ-2C R/B - Pass Details

Date: 09 April 2020
Orbit: 785 x 870 km, 98.3° (Epoch: 31 May)

Event Time Altitude Azimuth Distance (km) Brightness Sun altitude
Rises 20:58:56 0° 4° (N) 3,286 6.3 -26.6°
Reaches altitude 10° 21:01:25 10° 355° (N) 2,354 5.6 -26.9°
Maximum altitude 21:06:03 34° 292° (WNW) 1,275 4.1 -27.6°
Drops below altitude 10° 21:10:43 10° 228° (SW) 2,363 5.1 -28.2°
Sets 21:13:13 0° 219° (SW) 3,300 5.7 -28.6°
